User: anonymous   Login
Location: Vale
(35.4830°N, 81.3830°W)
Time: 16:43:11
(UTC-04:00)
Language:

Oscar 11 - Orbit

View from above orbital plane
View from above orbital plane
View from above satellite
View from above satellite

Ground track
Ground track

The orbit data is extracted from the following two-line orbital elements,

1 14781U 84021B   17145.90024518 +.00000126 +00000-0 +21858-4 0  9990
2 14781 097.6993 192.4340 0006984 273.3570 086.6845 14.82894475766045
Epoch (UTC): 25 May 2017 21:36:21
Eccentricity: 0.0006984
inclination: 97.6993°
perigee height: 615 km
apogee height: 625 km
right ascension of ascending node: 192.4340°
argument of perigee: 273.3570°
revolutions per day: 14.82894475
mean anomaly at epoch: 86.6845°
orbit number at epoch: 76604

The dashed part of the orbit path shows where the satellite is in the earth's shadow,  

DLR